| time (UTC) | temp F | wind direction | speed MPH | gust MPH | rain 1hr in | rain 24hr in | rain mn in | humidity % | barometer mb |
| 20260503191554 | 76 | 213 | 20.0 | 29.0 | 0.00 | 0.00 | 0.00 | 25 | 1012.1 |
| 20260503190045 | 75 | 230 | 13.0 | 27.0 | 0.00 | 0.00 | 0.00 | 26 | 1012.5 |
| 20260503184552 | 75 | 240 | 11.0 | 28.0 | 0.00 | 0.00 | 0.00 | 25 | 1012.7 |
| 20260503183058 | 73 | 210 | 15.0 | 29.0 | 0.00 | 0.00 | 0.00 | 26 | 1013.0 |
| 20260503181538 | 73 | 228 | 21.0 | 32.0 | 0.00 | 0.00 | 0.00 | 26 | 1013.3 |
| 20260503180041 | 74 | 239 | 18.0 | 24.0 | 0.00 | 0.00 | 0.00 | 25 | 1013.6 |
| 20260503174534 | 72 | 360 | 16.0 | 28.0 | 0.00 | 0.00 | 0.00 | 29 | 1013.8 |
| 20260503173044 | 72 | 190 | 17.0 | 26.0 | 0.00 | 0.00 | 0.00 | 29 | 1014.2 |
| 20260503171526 | 71 | 360 | 19.0 | 25.0 | 0.00 | 0.00 | 0.00 | 29 | 1014.4 |
| 20260503081510 | 52 | 238 | 17.0 | 25.0 | 0.00 | 0.00 | 0.00 | 58 | 1016.7 |
| 20260503071616 | 55 | 238 | 18.0 | 24.0 | 0.00 | 0.00 | 0.00 | 50 | 1017.1 |
| 20260503070107 | 53 | 268 | 15.0 | 21.0 | 0.00 | 0.00 | 0.00 | 48 | 1017.2 |
| 20260503054545 | 55 | 229 | 13.0 | 17.0 | 0.00 | 0.00 | 0.00 | 42 | 1017.4 |
| 20260503053044 | 55 | 236 | 15.0 | 18.0 | 0.00 | 0.00 | 0.00 | 40 | 1017.4 |
| 20260503051542 | 55 | 360 | 13.0 | 17.0 | 0.00 | 0.00 | 0.00 | 40 | 1017.5 |
| 20260503050038 | 56 | 213 | 16.0 | 18.0 | 0.00 | 0.00 | 0.00 | 36 | 1017.6 |
| 20260503044538 | 56 | 360 | 14.0 | 17.0 | 0.00 | 0.00 | 0.00 | 35 | 1017.5 |
| 20260503043042 | 57 | 211 | 11.0 | 16.0 | 0.00 | 0.00 | 0.00 | 34 | 1017.5 |
| 20260503041537 | 57 | 212 | 9.0 | 14.0 | 0.00 | 0.00 | 0.00 | 33 | 1017.4 |
| 20260503040046 | 59 | 360 | 9.0 | 13.0 | 0.00 | 0.00 | 0.00 | 31 | 1017.5 |
| 20260503034549 | 60 | 360 | 9.0 | 11.0 | 0.00 | 0.00 | 0.00 | 30 | 1017.5 |
| 20260503033042 | 60 | 360 | 8.0 | 13.0 | 0.00 | 0.00 | 0.00 | 29 | 1017.5 |
| 20260503031540 | 61 | 360 | 9.0 | 12.0 | 0.00 | 0.00 | 0.00 | 29 | 1017.4 |
| 20260503030046 | 62 | 360 | 7.0 | 10.0 | 0.00 | 0.00 | 0.00 | 28 | 1017.3 |
| 20260503024533 | 62 | 360 | 8.0 | 10.0 | 0.00 | 0.00 | 0.00 | 27 | 1017.2 |
| 20260503023033 | 62 | 211 | 7.0 | 11.0 | 0.00 | 0.00 | 0.00 | 27 | 1017.1 |
| 20260503021540 | 64 | 207 | 7.0 | 10.0 | 0.00 | 0.00 | 0.00 | 26 | 1017.2 |
| 20260503020032 | 65 | 360 | 7.0 | 10.0 | 0.00 | 0.00 | 0.00 | 25 | 1017.0 |
| 20260503014531 | 66 | 360 | 8.0 | 11.0 | 0.00 | 0.00 | 0.00 | 24 | 1016.9 |
| 20260503013031 | 68 | 219 | 5.0 | 7.0 | 0.00 | 0.00 | 0.00 | 22 | 1016.7 |
| 20260503011534 | 70 | 360 | 4.0 | 8.0 | 0.00 | 0.00 | 0.00 | 20 | 1016.7 |
| 20260503010029 | 71 | 360 | 6.0 | 10.0 | 0.00 | 0.00 | 0.00 | 20 | 1016.6 |
| 20260503004528 | 72 | 360 | 8.0 | 12.0 | 0.00 | 0.00 | 0.00 | 19 | 1016.6 |
| 20260503003028 | 73 | 360 | 8.0 | 11.0 | 0.00 | 0.00 | 0.00 | 18 | 1016.7 |
| 20260503001527 | 72 | 244 | 8.0 | 11.0 | 0.00 | 0.00 | 0.00 | 19 | 1016.7 |
| 20260503000032 | 74 | 175 | 1.0 | 8.0 | 0.00 | 0.00 | 0.00 | 18 | 1016.8 |
| 20260502234524 | 72 | 360 | 4.0 | 8.0 | 0.00 | 0.00 | 0.00 | 19 | 1016.9 |
| 20260502233025 | 70 | 150 | 0.0 | 8.0 | 0.00 | 0.00 | 0.00 | 19 | 1017.0 |
| 20260502231525 | 73 | 169 | 8.0 | 15.0 | 0.00 | 0.00 | 0.00 | 17 | 1017.1 |
| 20260502230022 | 71 | 244 | 6.0 | 15.0 | 0.00 | 0.00 | 0.00 | 20 | 1017.1 |
| 20260502224520 | 70 | 360 | 2.0 | 12.0 | 0.00 | 0.00 | 0.00 | 19 | 1017.2 |
| 20260502223019 | 73 | 255 | 3.0 | 12.0 | 0.00 | 0.00 | 0.00 | 18 | 1017.4 |
| 20260502221518 | 74 | 241 | 5.0 | 16.0 | 0.00 | 0.00 | 0.00 | 18 | 1017.6 |
| 20260502220014 | 76 | 300 | 7.0 | 14.0 | 0.00 | 0.00 | 0.00 | 17 | 1017.8 |
| 20260502214518 | 75 | 254 | 7.0 | 17.0 | 0.00 | 0.00 | 0.00 | 18 | 1017.9 |
| 20260502213009 | 70 | 111 | 8.0 | 14.0 | 0.00 | 0.00 | 0.00 | 19 | 1018.3 |
| 20260502211511 | 72 | 205 | 7.0 | 13.0 | 0.00 | 0.00 | 0.00 | 19 | 1018.6 |
| 20260502210006 | 71 | 93 | 5.0 | 8.0 | 0.00 | 0.00 | 0.00 | 19 | 1019.0 |
| 20260502204502 | 73 | 80 | 5.0 | 20.0 | 0.00 | 0.00 | 0.00 | 18 | 1019.2 |
| 20260502203101 | 69 | 94 | 2.0 | 11.0 | 0.00 | 0.00 | 0.00 | 20 | 1019.4 |
| 20260502201604 | 71 | 150 | 5.0 | 14.0 | 0.00 | 0.00 | 0.00 | 19 | 1019.7 |
| 20260502200106 | 69 | 78 | 3.0 | 11.0 | 0.00 | 0.00 | 0.00 | 20 | 1019.9 |
| 20260502194612 | 72 | 72 | 7.0 | 15.0 | 0.00 | 0.00 | 0.00 | 18 | 1020.1 |
| 20260502193054 | 69 | 83 | 2.0 | 11.0 | 0.00 | 0.00 | 0.00 | 20 | 1020.4 |